VK3HAG Weather Reports


time (UTC)temp
C
wind
direction
speed
KPH
gust
KPH
rain 1hr
cm
rain 24hr
cm
rain mn
cm
humidity
%
barometer
mb
20260510020004 14 0 0.0 0.0 0.00 0.00 0.00 87 1029.5
20260510014505 14 0 0.0 0.0 0.00 0.00 0.00 87 1029.6
20260510013004 14 0 0.0 0.0 0.00 0.00 0.00 90 1029.8
20260510011504 13 0 0.0 0.0 0.00 0.00 0.00 91 1029.8
20260510010005 13 0 0.0 0.0 0.00 0.00 0.00 91 1029.9
20260510004504 13 0 0.0 0.0 0.00 0.00 0.00 93 1029.9
20260510003005 13 0 0.0 0.0 0.00 0.00 0.00 94 1029.9
20260510001504 13 0 0.0 0.0 0.00 0.00 0.00 95 1029.9
20260510000004 13 0 0.0 0.0 0.00 0.00 0.00 95 1030.0
20260509234505 13 0 0.0 0.0 0.00 0.00 0.00 95 1029.9
20260509233004 13 0 0.0 0.0 0.00 0.00 0.00 96 1030.0
20260509231504 12 0 0.0 0.0 0.00 0.00 0.00 96 1029.9
20260509230004 12 0 0.0 0.0 0.00 0.00 0.00 95 1029.9
20260509224505 12 0 0.0 0.0 0.00 0.00 0.00 95 1029.8
20260509223005 12 0 0.0 0.0 0.00 0.00 0.00 95 1029.7
20260509221504 12 0 0.0 0.0 0.00 0.00 0.00 95 1029.6
20260509214504 12 0 0.0 0.0 0.00 0.00 0.00 95 1029.0
20260509213004 12 0 0.0 0.0 0.00 0.00 0.00 95 1028.9
20260509211504 12 0 0.0 0.0 0.00 0.00 0.00 95 1028.8
20260509210005 12 0 0.0 0.0 0.00 0.00 0.00 95 1028.5
20260509204504 12 0 0.0 0.0 0.00 0.00 0.00 95 1028.5
20260509203004 12 0 0.0 0.0 0.00 0.00 0.00 95 1028.3
20260509201504 12 0 0.0 0.0 0.00 0.00 0.00 95 1028.2
20260509200005 12 0 0.0 0.0 0.00 0.00 0.00 95 1028.1
20260509193004 12 0 0.0 0.0 0.00 0.00 0.00 95 1027.7
20260509191505 12 0 0.0 0.0 0.00 0.00 0.00 95 1027.4
20260509190005 12 139 0.0 1.6 0.00 0.00 0.00 95 1027.4
20260509184505 12 0 0.0 0.0 0.00 0.00 0.00 95 1027.2
20260509183004 12 0 0.0 0.0 0.00 0.00 0.00 95 1027.2
20260509181504 12 0 0.0 0.0 0.00 0.00 0.00 95 1027.0
20260509180005 12 0 0.0 0.0 0.00 0.00 0.00 95 1027.0
20260509174504 12 0 0.0 0.0 0.00 0.00 0.00 95 1027.0
20260509171504 12 0 0.0 0.0 0.00 0.00 0.00 95 1027.0
20260509170005 12 0 0.0 0.0 0.00 0.00 0.00 95 1027.1
20260509164504 12 0 0.0 0.0 0.00 0.03 0.00 95 1027.2
20260509163004 12 0 0.0 0.0 0.00 0.03 0.00 94 1027.1
20260509161504 13 124 0.0 3.2 0.00 0.03 0.00 94 1027.3
20260509160005 12 0 0.0 0.0 0.00 0.03 0.00 95 1027.2
20260509154504 12 0 0.0 0.0 0.00 0.03 0.00 94 1027.2
20260509153005 13 0 0.0 0.0 0.00 0.03 0.00 94 1027.3
20260509151504 13 0 0.0 0.0 0.00 0.03 0.00 95 1027.3
20260509150004 12 0 0.0 0.0 0.00 0.03 0.00 94 1027.3
20260509144504 12 0 0.0 0.0 0.00 0.03 0.00 94 1027.3
20260509143004 12 0 0.0 0.0 0.00 0.03 0.00 94 1027.3
20260509141504 12 0 0.0 0.0 0.00 0.03 0.00 94 1027.3
20260509140035 12 0 0.0 0.0 0.00 0.03 0.00 94 1027.4
20260509134504 12 0 0.0 0.0 0.00 0.03 0.03 94 1027.4
20260509133005 12 0 0.0 0.0 0.00 0.03 0.03 94 1027.3
20260509131504 12 0 0.0 0.0 0.00 0.03 0.03 94 1027.5
20260509130005 12 0 0.0 0.0 0.00 0.03 0.03 94 1027.4
20260509124504 12 0 0.0 0.0 0.00 0.03 0.03 94 1027.5
20260509123004 12 0 0.0 0.0 0.00 0.03 0.03 94 1027.5
20260509121505 12 0 0.0 0.0 0.00 0.03 0.03 94 1027.4
20260509120004 12 0 0.0 0.0 0.00 0.03 0.03 94 1027.5
20260509114504 11 0 0.0 0.0 0.00 0.03 0.03 94 1027.4
20260509113004 11 0 0.0 0.0 0.00 0.03 0.03 93 1027.2
20260509111504 11 0 0.0 0.0 0.00 0.03 0.03 93 1027.2
20260509110004 11 0 0.0 0.0 0.00 0.03 0.03 92 1027.2
20260509104504 11 0 0.0 0.0 0.00 0.03 0.03 92 1027.1
20260509100005 11 0 0.0 0.0 0.00 0.03 0.03 89 1027.0
20260509094504 11 0 0.0 0.0 0.00 0.03 0.03 89 1026.9
20260509093005 11 0 0.0 0.0 0.00 0.03 0.03 88 1026.9
20260509091504 12 0 0.0 0.0 0.00 0.03 0.03 88 1026.7
20260509090005 12 0 0.0 0.0 0.00 0.03 0.03 88 1026.7
20260509084504 13 0 0.0 0.0 0.00 0.03 0.03 88 1026.5
20260509083004 13 0 0.0 0.0 0.00 0.03 0.03 88 1026.4
20260509081504 13 0 0.0 0.0 0.00 0.03 0.03 88 1026.3
20260509080004 14 0 0.0 0.0 0.00 0.03 0.03 89 1026.2
20260509073005 14 0 0.0 0.0 0.00 0.03 0.03 88 1025.9
20260509071504 14 0 0.0 0.0 0.00 0.03 0.03 88 1025.6
20260509070005 14 0 0.0 0.0 0.00 0.03 0.03 88 1025.6
20260509064504 14 0 0.0 0.0 0.00 0.03 0.03 87 1025.5
20260509063005 14 0 0.0 0.0 0.00 0.03 0.03 87 1025.5
20260509061504 14 0 0.0 0.0 0.00 0.03 0.03 87 1025.4
20260509060005 14 0 0.0 0.0 0.00 0.03 0.03 87 1025.4
20260509054505 14 0 0.0 0.0 0.00 0.03 0.03 87 1025.3
20260509053005 15 0 0.0 0.0 0.00 0.03 0.03 88 1025.3
20260509051504 15 0 0.0 0.0 0.00 0.03 0.03 87 1025.3
20260509050005 15 0 0.0 0.0 0.00 0.03 0.03 87 1025.4
20260509043004 14 0 0.0 0.0 0.00 0.03 0.03 88 1025.4
20260509041504 15 0 0.0 0.0 0.00 0.03 0.03 90 1025.4
20260509040004 15 0 0.0 0.0 0.00 0.03 0.03 93 1025.4
20260509034504 13 0 0.0 0.0 0.00 0.03 0.03 93 1025.5
20260509033004 13 0 0.0 0.0 0.00 0.03 0.03 92 1025.5
20260509031504 14 0 0.0 0.0 0.00 0.03 0.03 93 1025.6
20260509030005 14 0 0.0 0.0 0.00 0.03 0.03 93 1025.8
20260509024504 14 0 0.0 0.0 0.00 0.03 0.03 93 1026.0
20260509023004 13 95 0.0 1.6 0.00 0.03 0.03 93 1026.2